Content
SEND FEEDBACK

Daily
Averages
Monthly
Summary
United States of America

HARRISONBURG, VIRGINIA


Home > North America > United States > Virginia
Elevation: 361 meters     Latitude: 38 16N     Longitude: 078 54W

WEATHER
 
SELECT A DAY
Number of Records: 456,470;   Date Range: 1/1/95 - 7/29/14
 
SHARE

PRINT THIS DATA

[ ← Previous Day ]
WEATHER ALMANAC - 23 JANUARY, 2013
[ Next Day → ]
[ °F ]   °C
Weather ElementAverageHighLow
Temperature-6.2 °C0 °C (3:55 pm)-14.1 °C (6:35 am)
Dewpoint-16.2 °C-5.4 °C (11:55 pm)-22 °C (2:55 pm)
Humidity52 %83 % (11:55 pm)19 % (2:35 pm)
Barometer1022 hPa1025.4 hPa (7:55 am)1017.3 hPa (11:55 pm)
Wind Speed3.7 km/h16.7 km/h (2:15 pm)
Wind Gust25.9 km/h (2:35 pm)
Weather ElementAverage
Visibility15.4 km
Wind DirectionE (89.2 °)

Weather ElementTotal
Precipitation---
Heating Degree Days25.4 (Base 18.3)
Averaged from 71 records on 23 January, 2013
WEATHER CONDITIONS BREAKOUT
WIND DIRECTION BREAKOUT
WEATHER BY HOUR - 23 JANUARY, 2013
[ °F ]   °C
Local TimeTemperatureDewpointHumidityBarometerVisibilityWind DirectionWind SpeedGust SpeedPrecipitationEventsConditions
12:35 AM-11.4 °C-16.3 °C68 %1023.7 hPa16.1 kmCalmClear
12:55 AM-12.5 °C-15.9 °C76 %1023.7 hPa16.1 kmCalmClear
1:15 AM-12 °C-16 °C73 %1023.7 hPa16.1 kmCalmClear
1:35 AM-11 °C-16.5 °C65 %1023.7 hPa16.1 kmCalmClear
1:55 AM-12.3 °C-16.3 °C73 %1024 hPa16.1 kmCalmClear
2:15 AM-12.2 °C-16.3 °C72 %1024 hPa16.1 kmCalmClear
2:35 AM-12 °C-16.2 °C72 %1024 hPa16.1 kmCalmClear
2:55 AM-12.3 °C-16.5 °C71 %1024.4 hPa16.1 kmCalmClear
3:15 AM-12.4 °C-16.1 °C74 %1024 hPa16.1 kmCalmClear
3:35 AM-12.5 °C-16 °C76 %1024 hPa16.1 kmCalmClear
3:55 AM-12.7 °C-15.8 °C78 %1024 hPa16.1 kmCalmClear
4:15 AM-13.5 °C-16.2 °C81 %1024 hPa16.1 kmCalmClear
4:35 AM-13.5 °C-16.4 °C79 %1024 hPa16.1 kmCalmClear
4:55 AM-12.9 °C-15.6 °C81 %1024 hPa16.1 kmCalmClear
5:15 AM-13.3 °C-16.1 °C80 %1024.4 hPa16.1 kmCalmClear
5:35 AM-13 °C-15.9 °C79 %1024.4 hPa16.1 kmCalmClear
5:55 AM-13.6 °C-16.4 °C80 %1024.4 hPa16.1 kmCalmClear
6:15 AM-13.8 °C-16.3 °C82 %1024.4 hPa16.1 kmCalmClear
6:35 AM-14.1 °C-16.7 °C81 %1024.7 hPa16.1 kmCalmClear
6:55 AM-13.5 °C-16.2 °C81 %1024.7 hPa16.1 kmCalmClear
7:15 AM-13.7 °C-16.5 °C80 %1025.1 hPa16.1 kmCalmClear
7:35 AM-13.5 °C-16.3 °C80 %1025.1 hPa16.1 kmCalmClear
7:55 AM-13.1 °C-16.1 °C79 %1025.4 hPa16.1 kmCalmClear
8:15 AM-12.2 °C-15.2 °C79 %1025.1 hPa16.1 kmCalmClear
8:35 AM-10.8 °C-14.8 °C73 %1025.1 hPa16.1 kmCalmClear
8:55 AM-9.7 °C-15.1 °C65 %1025.4 hPa16.1 kmCalmClear
9:15 AM-8.8 °C-16.3 °C55 %1025.4 hPa16.1 kmCalmClear
9:35 AM-7.9 °C-15.6 °C55 %1025.4 hPa16.1 kmCalmClear
9:55 AM-7.3 °C-16 °C51 %1025.4 hPa16.1 kmCalmClear
10:15 AM-6.5 °C-17.8 °C41 %1025.4 hPa16.1 kmWest (260°)7.4 km/hClear
10:35 AM-6.1 °C-19 °C36 %1025.4 hPa16.1 kmCalmClear
10:55 AM-5.5 °C-19 °C35 %1025.1 hPa16.1 kmWest (260°)7.4 km/hClear
11:15 AM-5 °C-19.3 °C32 %1024.7 hPa16.1 kmSW (230°)13 km/hClear
11:35 AM-4.5 °C-19.6 °C31 %1024 hPa16.1 kmWSW (250°)14.8 km/hClear
11:55 AM-4.7 °C-19.4 °C32 %1024 hPa16.1 kmCalmMostly Cloudy
12:15 PM-3.6 °C-19.1 °C30 %1023.4 hPa16.1 kmSSW (210°)11.1 km/hOvercast
12:35 PM-3.3 °C-19.7 °C28 %1022.7 hPa16.1 kmCalmOvercast
12:55 PM-2.8 °C-19.4 °C27 %1022 hPa16.1 kmSW (230°)7.4 km/hOvercast
1:15 PM-3 °C-19.6 °C27 %1021.7 hPa16.1 kmSW (230°)14.8 km/hOvercast
1:35 PM-2.7 °C-19.7 °C27 %1021.3 hPa16.1 kmSouth (190°)14.8 km/hOvercast
1:55 PM-2.1 °C-20.5 °C24 %1021.3 hPa16.1 kmWSW (240°)13 km/hOvercast
2:15 PM-0.5 °C-20.8 °C21 %1020.7 hPa16.1 kmWest (260°)16.7 km/hOvercast
2:35 PM-0.3 °C-21.8 °C19 %1020.3 hPa16.1 kmWest (260°)16.7 km/h25.9 km/hMostly Cloudy
2:55 PM-1.2 °C-22 °C20 %1020.3 hPa16.1 kmSW (230°)7.4 km/hOvercast
3:15 PM-0.7 °C-22 °C19 %1020.3 hPa16.1 kmWest (280°)9.3 km/hOvercast
3:35 PM-0.6 °C-21.6 °C19 %1020.3 hPa16.1 kmWest (280°)7.4 km/hOvercast
3:55 PM0 °C-21.1 °C19 %1020 hPa16.1 kmSW (230°)14.8 km/hOvercast
4:15 PM-0.3 °C-21.8 °C19 %1019.6 hPa16.1 kmCalmOvercast
4:35 PM-0.3 °C-21.4 °C19 %1019.6 hPa16.1 kmCalmOvercast
4:55 PM-0.6 °C-20.7 °C21 %1020 hPa16.1 kmCalmOvercast
5:15 PM-0.8 °C-19.8 °C23 %1020 hPa16.1 kmCalmOvercast
5:35 PM-0.7 °C-19.6 °C23 %1019.6 hPa16.1 kmCalmOvercast
5:55 PM-0.7 °C-18.5 °C25 %1019.6 hPa16.1 kmWest (260°)9.3 km/hOvercast
6:15 PM-1 °C-17 °C29 %1019.6 hPa16.1 kmWest (270°)5.6 km/hOvercast
6:35 PM-1 °C-16.6 °C30 %1019.6 hPa16.1 kmCalmOvercast
6:55 PM-1 °C-16 °C32 %1019.3 hPa16.1 kmWest (260°)7.4 km/hOvercast
7:15 PM-1.1 °C-15.3 °C34 %1019 hPa16.1 kmWest (260°)7.4 km/hOvercast
7:35 PM-1.3 °C-14.9 °C35 %1019.3 hPa16.1 kmCalmOvercast
7:55 PM-1.5 °C-14.3 °C38 %1019 hPa16.1 kmCalmOvercast
8:15 PM-1.5 °C-13.5 °C40 %1019 hPa16.1 kmCalmOvercast
8:35 PM-1.5 °C-13 °C42 %1019 hPa16.1 kmCalmOvercast
8:55 PM-1.2 °C-11.3 °C47 %1019 hPa16.1 kmWSW (250°)11.1 km/hOvercast
9:15 PM-1.3 °C-9.9 °C53 %1018.6 hPa16.1 kmSW (230°)11.1 km/hOvercast
9:35 PM-1.5 °C-9.5 °C55 %1018.3 hPa16.1 kmSW (230°)5.6 km/hOvercast
9:55 PM-1.6 °C-8.9 °C58 %1018.3 hPa16.1 kmWSW (240°)7.4 km/hOvercast
10:15 PM-1.7 °C-8 °C63 %1018.3 hPa16.1 kmSW (230°)9.3 km/hOvercast
10:35 PM-2 °C-7.3 °C67 %1018.3 hPa8 kmSW (230°)7.4 km/hSnowLight Snow
10:55 PM-2.3 °C-6.5 °C73 %1018.3 hPa8 kmSW (230°)5.6 km/hSnowLight Snow
11:15 PM-2.5 °C-5.9 °C78 %1017.9 hPa6.4 kmCalmSnowLight Snow
11:35 PM-2.7 °C-5.6 °C81 %1017.6 hPa4.8 kmCalmSnowLight Snow
11:55 PM-2.9 °C-5.4 °C83 %1017.3 hPa6.4 kmCalmSnowLight Snow
Hourly data recorded from KSHD, located 0 kilometers away from Harrisonburg, Virginia







STORIES FROM OUR PARTNERS